This demonstration page uses our WeatherBlox Daily Observations layout. Learn more.

Left ArrowRight Arrow

34.74481, -87.66753

Hourly Observations for November 27, 2022

Temp ( °F °C ) Dew Point ( °F °C ) Humidity (%) Winds ( mph kmh ) Pressure ( in mb ) Visibility ( mi km ) Precip ( " mm )
12:53 am 00:53 Cloudy with Light Rain 65 18.3 62 16.7 90 90 S 12 19 29.61 1003 7 11 0.02 0.51
1:31 am 01:31 Cloudy 66 18.9 63 17.2 90 90 S 17 28 29.61 1003 10 16 0.01 0.13
1:53 am 01:53 Cloudy 66 18.9 63 17.2 90 90 SSW 12 19 29.61 1003 10 16 0.01 0.13
2:25 am 02:25 Mostly Cloudy 67 19.4 61 16.1 81 81 SSW 15 24 29.60 1002 10 16 0.00 0.00
2:53 am 02:53 Mostly Cloudy 65 18.3 60 15.6 84 84 SW 16 26 29.60 1003 10 16 0.00 0.00
3:03 am 03:03 Cloudy with Light Rain 65 18.3 58 14.4 78 78 WSW 21 33 29.61 1003 10 16 0.01 0.13
3:53 am 03:53 Cloudy 63 17.2 56 13.3 78 78 WSW 21 33 29.63 1003 10 16 0.01 0.13
4:53 am 04:53 Clear 58 14.4 50 10 75 75 WSW 18 30 29.65 1004 10 16 0.00 0.00
5:53 am 05:53 Clear 56 13.3 45 7.2 66 66 SW 28 44 29.68 1005 10 16 0.00 0.00
6:53 am 06:53 Sunny 53 11.7 42 5.6 66 66 SW 22 35 29.71 1006 10 16 0.00 0.00
7:53 am 07:53 Cloudy 53 11.7 43 6.1 68 68 WSW 18 30 29.74 1007 10 16 0.00 0.00
8:12 am 08:12 Cloudy 53 11.7 43 6.1 68 68 WSW 23 37 29.77 1008 10 16 0.00 0.00
8:39 am 08:39 Cloudy 53 11.7 43 6.1 68 68 WSW 14 22 29.77 1008 10 16 0.00 0.00
8:53 am 08:53 Cloudy 53 11.7 43 6.1 68 68 WSW 18 30 29.76 1008 10 16 0.00 0.00
9:13 am 09:13 Cloudy 53 11.7 43 6.1 68 68 WSW 21 33 29.79 1009 10 16 0.00 0.00
9:30 am 09:30 Cloudy 53 11.7 43 6.1 68 68 SW 13 20 29.78 1009 10 16 0.00 0.00
9:45 am 09:45 Cloudy 53 11.7 43 6.1 68 68 WSW 16 26 29.78 1009 10 16 0.00 0.00
9:53 am 09:53 Cloudy 53 11.7 43 6.1 68 68 WSW 16 26 29.77 1008 10 16 0.00 0.00
10:53 am 10:53 Cloudy 56 13.3 44 6.7 64 64 WSW 17 28 29.77 1008 10 16 0.00 0.00
11:05 am 11:05 Cloudy 56 13.3 44 6.7 64 64 WSW 14 22 29.77 1008 10 16 0.00 0.00
11:53 am 11:53 Cloudy 56 13.3 44 6.7 64 64 W 18 30 29.77 1008 10 16 0.00 0.00
12:53 pm 12:53 Cloudy 56 13.3 44 6.7 64 64 W 16 26 29.77 1008 10 16 0.00 0.00
1:53 pm 13:53 Cloudy 56 13.3 44 6.7 64 64 W 14 22 29.77 1008 10 16 0.00 0.00
2:53 pm 14:53 Cloudy 57 13.9 45 7.2 64 64 W 8 13 29.78 1009 10 16 0.00 0.00
3:53 pm 15:53 Cloudy 55 12.8 45 7.2 69 69 NW 7 11 29.80 1009 10 16 0.00 0.00
4:53 pm 16:53 Cloudy 54 12.2 45 7.2 71 71 NW 10 17 29.84 1011 10 16 0.00 0.00
5:26 pm 17:26 Cloudy 54 12.2 45 7.2 71 71 WNW 9 15 29.86 1011 10 16 0.00 0.00
5:53 pm 17:53 Cloudy 54 12.2 45 7.2 71 71 W 12 19 29.86 1011 10 16 0.00 0.00
6:35 pm 18:35 Cloudy 53 11.7 46 7.8 77 77 W 10 17 29.88 1012 10 16 0.00 0.00
6:53 pm 18:53 Cloudy 53 11.7 45 7.2 74 74 W 10 17 29.88 1012 10 16 0.00 0.00
7:53 pm 19:53 Cloudy 54 12.2 45 7.2 71 71 WSW 12 19 29.89 1012 10 16 0.00 0.00
8:53 pm 20:53 Cloudy 53 11.7 46 7.8 77 77 W 10 17 29.89 1012 10 16 0.00 0.00
9:53 pm 21:53 Cloudy with Light Rain 51 10.6 46 7.8 83 83 NW 13 20 29.91 1013 6 10 0.01 0.13
10:05 pm 22:05 Cloudy 50 10 46 7.8 86 86 NW 9 15 29.93 1013 7 11 0.01 0.13
10:16 pm 22:16 Cloudy 50 10 46 7.8 86 86 WNW 6 9 29.94 1014 8 13 0.01 0.13
10:46 pm 22:46 Cloudy 49 9.4 47 8.3 93 93 W 5 7 29.93 1014 10 16 0.01 0.13
10:53 pm 22:53 Cloudy 49 9.4 47 8.3 93 93 W 3 6 29.91 1013 10 16 0.01 0.13
11:53 pm 23:53 Cloudy 50 10 47 8.3 89 89 Calm 29.91 1013 10 16 0.00 0.00

Powered by AerisWeather